Vorticity
6 6 5 4 3 4 6 1 3 4 5 6 6 8 9 10 10 8 7 7 6 6 6 6 6 6 6 6 6 6 6 6 6
9 5 7 5 5 3 7 3 2 3 3 5 7 6 7 8 9 9 12 11 8 7 7 7 7 7 7 7 7 6 5 6 7
5 7 6 7 7 5 1 7 4 3 2 2 5 4 4 3 3 4 6 8 9 8 7 7 7 7 7 7 6 6 7 7 7
4 4 6 5 7 8 5 1 5 4 3 2 2 4 2 3 3 3 3 3 3 4 5 5 6 4 3 3 2 2 2 2 2
5 3 4 5 5 7 16 4 7 -11 4 4 1 2 4 2 2 3 3 3 2 4 4 4 4 5 5 5 6 6 6 6 7
4 3 5 4 5 6 1 10 3 -16 5 7 3 1 1 3 3 2 2 3 2 3 2 3 3 3 2 3 3 3 3 3 3
7 5 4 3 3 5 6 8 -8 12 -15 49 -2 3 3 2 2 2 3 2 2 3 3 3 2 3 2 1 1 1 1 1 1
15 8 11 5 3 3 4 5 4 1 4 8 2 3 -0 0 4 2 2 3 3 3 3 3 3 3 3 2 3 4 5 5 5
19 4 -14 18 1 6 1 1 4 7 -5 9 5 0 13 1 4 3 3 3 3 3 4 4 3 3 3 3 4 4 5 5 5
8 8 6 5 17 16 8 8 1 1 14 7 3 14 5 -20 -2 8 7 4 4 2 3 4 5 4 3 3 3 4 5 5 4
7 8 9 9 7 7 50 1 22 25 38 1 3 4 6 16 8 2 -6 13 4 8 4 7 4 4 6 3 4 4 3 4 4
7 11 8 8 7 19 23 17 3 -61 3 -6 43 2 1 -5 2 9 7 3 2 17 9 -7 13 6 5 6 4 3 4 3 3
5 4 5 10 13 7 7 13 8 6 4 14 12 16 12 6 46 9 6 3 8 12 7 12 -4 -5 9 5 5 5 5 5 4
9 8 8 6 4 7 8 10 12 12 19 7 15 12 -2 -14 -8 37 24 34 26 14 -12 15 16 26 -3 -4 7 5 4 5 4
5 8 8 8 6 7 6 7 7 8 12 15 13 18 3 3 8 13 9 -1 8 16 31 1 -6 11 11 13 5 3 -1 -2 4
5 4 5 6 7 3 5 6 5 8 6 8 8 6 20 -6 15 8 19 5 12 14 5 43 18 -23 1 13 10 8 15 17 13
9 6 6 6 7 8 4 4 7 6 6 7 7 20 22 -22 21 4 31 -3 0 6 11 2 18 28 31 9 -20 -3 5 10 1
10 14 17 14 9 4 10 10 3 9 9 8 4 4 8 7 20 -14 5 3 7 2 2 20 9 11 20 17 12 7 14 20 11
7 9 10 16 15 12 10 9 12 8 11 13 9 8 8 5 8 23 -16 22 1 -6 -5 -12 1 5 9 14 15 15 19 19 16
10 5 6 10 11 10 11 12 12 14 8 10 14 10 9 6 4 7 18 18 16 -2 -17 1 -4 12 9 -5 3 4 5 11 9
Height
5823 5823 5825 5826 5828 5828 5828 5829 5830 5832 5833 5832 5833 5834 5834 5835 5836 5836 5837 5839 5840 5841 5842 5843 5845 5845 5846 5847 5848 5848 5849 5850 5851
5817 5818 5819 5822 5824 5825 5825 5826 5827 5828 5830 5830 5831 5832 5832 5833 5833 5834 5835 5837 5838 5839 5840 5841 5842 5844 5845 5845 5846 5847 5847 5848 5849
5813 5813 5814 5816 5818 5820 5822 5823 5823 5824 5826 5827 5828 5829 5830 5831 5832 5832 5834 5835 5836 5837 5838 5839 5840 5841 5842 5843 5844 5844 5845 5845 5846
5807 5808 5808 5810 5812 5814 5816 5818 5819 5820 5821 5822 5823 5825 5827 5828 5829 5830 5832 5833 5834 5835 5835 5836 5837 5838 5840 5840 5841 5842 5843 5843 5844
5800 5802 5803 5804 5806 5807 5810 5812 5813 5814 5814 5817 5818 5820 5822 5824 5825 5825 5828 5829 5830 5831 5833 5833 5835 5836 5837 5838 5839 5840 5840 5841 5841
5793 5795 5796 5798 5799 5800 5803 5805 5807 5803 5807 5810 5812 5815 5817 5819 5820 5819 5823 5825 5826 5827 5829 5831 5831 5832 5834 5835 5836 5837 5837 5838 5838
5786 5787 5789 5791 5792 5794 5795 5797 5796 5799 5801 5800 5803 5806 5811 5814 5815 5814 5816 5819 5820 5822 5824 5827 5827 5829 5830 5831 5832 5833 5833 5834 5834
5777 5777 5780 5783 5784 5785 5786 5787 5789 5791 5793 5795 5798 5800 5803 5806 5808 5808 5809 5811 5813 5816 5819 5821 5822 5823 5825 5826 5827 5827 5828 5829 5829
5768 5768 5771 5773 5775 5776 5778 5779 5780 5782 5784 5785 5787 5790 5794 5797 5799 5802 5801 5804 5806 5808 5812 5814 5816 5817 5818 5820 5821 5822 5822 5823 5824
5761 5762 5763 5765 5767 5769 5770 5770 5772 5773 5774 5775 5778 5781 5785 5787 5790 5793 5794 5796 5799 5800 5804 5806 5808 5810 5812 5813 5815 5816 5817 5818 5818
5750 5752 5754 5756 5759 5759 5743 5754 5753 5767 5767 5767 5768 5771 5774 5778 5781 5783 5784 5787 5790 5791 5794 5799 5799 5801 5804 5806 5807 5809 5810 5810 5811
5741 5742 5743 5746 5748 5750 5747 5744 5734 5742 5750 5753 5755 5761 5765 5768 5771 5773 5775 5777 5780 5783 5784 5788 5791 5792 5795 5798 5799 5800 5801 5802 5803
5733 5734 5734 5735 5737 5738 5739 5738 5738 5743 5745 5745 5745 5749 5754 5756 5759 5763 5766 5769 5771 5773 5776 5780 5783 5784 5786 5789 5790 5791 5793 5795 5796
5723 5724 5725 5726 5726 5727 5728 5728 5730 5732 5737 5738 5739 5740 5743 5746 5750 5753 5755 5758 5762 5765 5767 5768 5771 5775 5777 5779 5780 5783 5784 5785 5787
5711 5712 5714 5715 5716 5715 5717 5718 5720 5724 5726 5729 5730 5733 5735 5738 5740 5745 5746 5748 5751 5753 5756 5759 5762 5765 5768 5770 5771 5773 5774 5775 5777
5699 5700 5701 5703 5705 5705 5707 5708 5710 5713 5715 5719 5721 5721 5724 5730 5733 5734 5738 5740 5744 5744 5746 5748 5751 5753 5756 5760 5762 5764 5764 5764 5766
5687 5688 5689 5690 5692 5694 5694 5696 5700 5703 5705 5708 5710 5713 5717 5719 5723 5726 5728 5731 5733 5736 5737 5739 5741 5743 5745 5748 5752 5753 5755 5755 5755
5674 5675 5677 5678 5679 5680 5682 5684 5685 5689 5693 5697 5699 5703 5707 5709 5713 5716 5717 5720 5723 5726 5728 5731 5732 5733 5734 5736 5739 5742 5743 5744 5745
5661 5662 5663 5665 5665 5667 5668 5670 5673 5675 5680 5684 5688 5692 5696 5699 5703 5706 5709 5712 5714 5715 5720 5722 5722 5724 5724 5725 5727 5728 5730 5732 5733
5648 5649 5650 5652 5652 5653 5655 5656 5659 5661 5665 5669 5675 5679 5684 5688 5692 5695 5698 5701 5706 5706 5708 5711 5713 5715 5716 5717 5717 5718 5720 5720 5722